Simultaneous Nadir Overpasses (SNOs) Predictions

Prediction of SNOs between GOES-14 and AQUA Satellite Orbit:

Table of predicted SNOs for the next 14.0 days since TLE Epoch: 8/10/2019
Index Date Time (GOES-14) GOES-14 Lat,Lon AQUA Lat,Lon Distance(km) Time Diff (sec)
1 08/11/2019 08:35:29 0.37,-104.51 0.38,-104.61 11.20 80
2 08/13/2019 08:20:37 0.36,-104.48 -0.24,-101.65 321.59 80
3 08/13/2019 20:42:01 -0.38,-104.65 -0.84,-106.85 249.65 80
4 08/15/2019 20:32:29 -0.37,-104.63 -0.22,-103.89 83.79 80
5 08/17/2019 20:20:17 -0.37,-104.60 0.40,-100.93 417.64 80
6 08/18/2019 08:41:32 0.38,-104.43 0.74,-106.08 187.12 80
7 08/20/2019 08:26:40 0.37,-104.41 0.12,-103.12 146.40 80
8 08/20/2019 20:48:04 -0.38,-104.55 -1.20,-108.31 427.75 80
9 08/22/2019 08:14:28 0.37,-104.38 -0.51,-100.16 479.93 80
10 08/22/2019 20:35:52 -0.38,-104.53 -0.57,-105.35 93.90 80




NCC Satellite Simultaneous Nadir Overpasses (SNOs) Prediction Service
